{"data":{"norad_id":48931,"epoch":"2026-05-25T02:28:02.573184Z","epoch_age_seconds":66066,"freshness":"FRESH","line1":"1 48931U 21059BE  26145.10280756  .00037071  00000+0  34250-3 0  9993","line2":"2 48931  97.6686 339.6632 0005305  65.1445 295.0366 15.67474020274234","mean_motion":15.6747402,"eccentricity":0.0005305,"inclination_deg":97.6686,"raan_deg":339.6632,"arg_perigee_deg":65.1445,"mean_anomaly_deg":295.0366,"bstar":0.0003425,"rev_number":27423,"period_min":91.867551335875,"perigee_km":362.55503908437,"apogee_km":369.71070942095,"semimajor_km":6744.2698742527,"source":"CELESTRAK","updated_at":"2026-05-25T13:38:24.926523Z"}}